Showing default

CAPELLA-11 (ACADIA), 57693

Orbit data source: Space-Track

CAPELLA-11 (ACADIA), 57693 is a payload satellite owned by Capella Space (US) in LEO that was launched on Wed, 23 Aug 2023 UTC via an ELECTRON launch vehicle from the Rocket Lab Launch Complex (RLLC). Payload-class satellites include a variety of spacecraft equipped with specific instruments for various scientific and technological missions. These include communications satellites like Starlink; space stations such as the ISS; scientific satellites like the Hubble; Earth observation satellites from companies like Planet Labs, Umbra, and HawkEye 360; GPS; miniature CubeSats for education and research; and military/defense satellites.

Loading next visibility...
Identifier
57693, 2023-126A
Orbit
LEO
Country
Flag of USUS
Related business
Manufacturer
Capella Space
Mission
Operational Commercial Radar Imaging
Bus & Motor
ACADIA, Unknown motor
Mass
180 kg wet, ~150 kg dry
Launch date (UTC)
2023-08-23 (3 years ago)
Launch vehicle
ELECTRON
Launch site
Rocket Lab Launch Complex (RLLC)
Object type
Payload
Rocket body
Debris
Shape & HBR
Box + 2 Pan + 1 Dish + 1 Rod, 1.8 m
Radar Cross Section
0.463 m², Large (>1 m²)

Expand to show TLE details & history
Last TLE update: 11 hours ago

TLE from 11 hours ago
0 CAPELLA-11 (ACADIA)
1 57693U 23126A   26094.13144180  .00008456  00000-0  11034-2 0  9991
2 57693  53.0059 145.3147 0000974 178.9305 181.1675 14.81215461141145
Epoch: 2026-04-04T03:09Z
TLE epoch observation values (Epoch: 2026-04-04T03:09:16.571Z)
Latitude
0.00001°
Longitude
-94.45996°
Altitude
627.036 km
Speed
7.546 km/s
True Right ascension
09h 41m 15s
True Declination
0° 00' 00"
Sunlit
Object was in full shadow at epoch
Visualization orbit readout
Latitude
Unknown
Longitude
Unknown
Altitude
Unknown
Speed
Unknown
Apparent Right ascension
Unknown
Apparent Declination
Unknown
Sunlit
N/A
Visualization observer readout
Local Sidereal Time
20:15:48
Azimuth
Unknown
Elevation
Unknown
Doppler factor
Unknown
Orbital elements
Apogee altitude
626.448 km
Perigee altitude
625.083 km
Semi-major axis
7,003.903 km
Eccentricity
0.0001
Inclination
53.0059°
RAAN
145.3147°
Arg. of periapsis
178.9305°
True anomaly
181.16727°
Mean anomaly
181.1675°
Eccentric anomaly
181.16739°
Mean motion
3.70282 °/min
Orbital period
97.22 mins
BSTAR
0.0011034
Loading maneuver chart data...
Computing Atmospheric mass density...
Loading historical data...
Loading historical data...
Loading historical data...
Loading historical data...
Loading historical data...
Loading historical data...
Loading historical data...
Other satellites on launch #126 in the year 2023 (2023-08-23 UTC)

Documentation

Showing up to 5 results
|